| Temp | 61.4 °F 1.9 |
|---|---|
| RH | 45 % 6 |
| Wet Bulb | 49.2 °F 0.1 |
| Dew Pt | 39.9 °F 2.0 |
| Wind Spd | 12.3 mph 2.8 |
| Wind Dir | N | 357 ° |
| Wind Gust | 17.6 mph 2.9 |
| Daily Min Temp | 52.7 °F 4.1 |
| Daily Max Temp | 66.8 °F 0.4 |
| Date & Time | Temp (°F) | RH (%) | Dew Pt (°F) | Wet Bulb (°F) | Wind Dir (°) | Wind Spd (mph) | Wind Gust (mph) | WindChill (°F) | Daily Min Temp (°F) | Daily Max Temp (°F) |
|---|---|---|---|---|---|---|---|---|---|---|
| 8/31/26 - 1545 | 61.4 | 45 | 39.9 | 49.2 | N | 357 | 12.3 | 17.6 | 61.4 | 52.7 | 66.8 |
| 8/31/26 - 1530 | 60.9 | 45 | 39.6 | 48.8 | N | 352 | 12.4 | 17.8 | 60.9 | 52.7 | 66.8 |
| 8/31/26 - 1515 | 61.5 | 43 | 38.6 | 48.7 | N | 8 | 13.0 | 22.1 | 61.5 | 52.7 | 66.8 |
| 8/31/26 - 1500 | 62.2 | 41 | 38.4 | 48.8 | N | 2 | 12.6 | 20.6 | 62.2 | 52.7 | 66.8 |
| 8/31/26 - 1445 | 65.3 | 36 | 37.6 | 49.8 | N | 6 | 12.4 | 19.7 | 65.3 | 52.7 | 66.8 |
| 8/31/26 - 1430 | 63.7 | 36 | 36.5 | 48.7 | N | 4 | 10.4 | 16.7 | 63.7 | 52.7 | 66.8 |
| 8/31/26 - 1415 | 63.1 | 36 | 35.9 | 48.2 | N | 9 | 11.5 | 17.8 | 63.1 | 52.7 | 65.0 |
| 8/31/26 - 1400 | 61.8 | 37 | 35.0 | 47.3 | N | 2 | 11.2 | 19.3 | 61.8 | 52.7 | 65.0 |
| 8/31/26 - 1345 | 63.7 | 35 | 35.5 | 48.3 | NNE | 16 | 10.8 | 15.6 | 63.7 | 52.7 | 65.0 |
| 8/31/26 - 1330 | 63.8 | 35 | 35.4 | 48.3 | N | 9 | 10.7 | 16.0 | 63.8 | 52.7 | 65.0 |
| 8/31/26 - 1315 | 61.9 | 38 | 35.8 | 47.7 | N | 7 | 11.2 | 17.4 | 61.9 | 52.7 | 63.7 |
| 8/31/26 - 1300 | 61.8 | 36 | 34.7 | 47.2 | N | 354 | 10.2 | 16.9 | 61.8 | 52.7 | 63.7 |
| 8/31/26 - 1245 | 61.3 | 38 | 35.6 | 47.4 | N | 359 | 11.0 | 17.6 | 61.3 | 52.7 | 63.7 |
| 8/31/26 - 1230 | 59.8 | 41 | 35.9 | 46.9 | N | 354 | 10.6 | 16.0 | 59.8 | 52.7 | 62.9 |
| 8/31/26 - 1215 | 60.7 | 39 | 35.8 | 47.2 | N | 353 | 11.3 | 17.5 | 60.7 | 52.7 | 62.9 |
| 8/31/26 - 1200 | 60.9 | 40 | 36.4 | 47.5 | N | 360 | 10.3 | 17.6 | 60.9 | 52.7 | 62.9 |
| 8/31/26 - 1145 | 61.5 | 37 | 35.2 | 47.3 | N | 3 | 10.0 | 16.0 | 61.5 | 52.7 | 62.9 |
| 8/31/26 - 1130 | 61.5 | 36 | 34.3 | 46.9 | N | 359 | 9.7 | 15.3 | 61.5 | 52.7 | 62.9 |
| 8/31/26 - 1115 | 60.8 | 39 | 35.6 | 47.1 | N | 1 | 9.0 | 15.3 | 60.8 | 52.7 | 62.4 |
| 8/31/26 - 1100 | 59.0 | 39 | 34.0 | 45.8 | N | 4 | 9.0 | 14.0 | 59.0 | 52.7 | 61.5 |
| 8/31/26 - 1045 | 59.1 | 36 | 32.3 | 45.1 | N | 359 | 7.6 | 13.0 | 59.1 | 52.7 | 60.9 |
| 8/31/26 - 1030 | 59.9 | 38 | 34.4 | 46.3 | N | 2 | 6.0 | 10.1 | 59.9 | 52.7 | 59.9 |
| 8/31/26 - 1015 | 58.2 | 39 | 33.4 | 45.2 | N | 1 | 5.8 | 9.9 | 58.2 | 52.7 | 58.7 |
| 8/31/26 - 1000 | 58.5 | 38 | 33.3 | 45.3 | N | 1 | 4.9 | 9.2 | 58.5 | 52.7 | 58.7 |
| Max | 65.3 | 45 | 39.9 | 49.8 | - | 13.0 | 22.1 | 65.3 | 52.7 | 66.8 |
| Avg | 61.3 | 38 | 35.8 | 47.5 | - | 10.2 | 16.2 | 61.3 | - | - |
| Min | 58.2 | 35 | 32.3 | 45.1 | - | 4.9 | 9.2 | 58.2 | 52.7 | 58.7 |
| Date | Daily Max Temp (°F) | Time of Max Temp | Daily Min Temp (°F) | Time of Min Temp | Wind Spd (mph) | Wind Gust (mph) | Wind Gst Dir (°) | Wind Gst Time | Wet Bulb (°F) | WetB Hrs <28F (hrs) | Daily Max RH (%) | Daily Min RH (%) | MinBV Day (V) |
|---|---|---|---|---|---|---|---|---|---|---|---|---|---|
| 8/30/26 | 67.2 | 1342 | 48.6 | 0357 | 8.2 | 26.5 | NNE | 30 | 0139 | 43.5 | 0.0 | 55 | 25 | 10.8 |
| 8/29/26 | 61.5 | 1603 | 48.4 | 0607 | 12.1 | 28.7 | NNW | 339 | 1236 | 45.7 | 0.0 | 92 | 30 | 10.9 |
| 8/28/26 | 55.9 | 0150 | 48.1 | 1101 | 5.3 | 17.3 | NNE | 14 | 0031 | 48.0 | 0.0 | 95 | 45 | 11.0 |
| 8/27/26 | 69.3 | 1301 | 55.0 | 2318 | 12.4 | 28.6 | NNE | 12 | 0104 | 46.3 | 0.0 | 57 | 24 | 11.0 |
| 8/26/26 | 71.8 | 1503 | 57.8 | 0355 | 11.2 | 28.3 | NNE | 22 | 1122 | 50.3 | 0.0 | 62 | 25 | 10.9 |
| 8/25/26 | 69.2 | 1628 | 56.3 | 0422 | 10.7 | 30.7 | N | 10 | 2135 | 49.0 | 0.0 | 51 | 36 | 11.1 |
| 8/24/26 | 71.4 | 1450 | 56.7 | 2356 | 9.4 | 22.6 | N | 8 | 1522 | 49.9 | 0.0 | 55 | 36 | 11.1 |
| 8/23/26 | 70.5 | 1558 | 59.2 | 2339 | 10.7 | 24.0 | NNE | 28 | 1853 | 50.3 | 0.0 | 50 | 35 | 11.1 |
| 8/21/26 | 73.1 | 1329 | 59.6 | 0602 | 11.5 | 27.2 | NNE | 13 | 1936 | 49.2 | 0.0 | 49 | 31 | 10.9 |
| 8/20/26 | 73.6 | 1425 | 59.9 | 0522 | 8.3 | 21.4 | NNW | 330 | 2147 | 48.0 | 0.0 | 40 | 22 | 10.8 |
| 8/19/26 | 75.4 | 1307 | 61.4 | 2023 | 7.7 | 24.9 | NNW | 327 | 2322 | 49.8 | 0.0 | 44 | 22 | 10.8 |
| 8/18/26 | 73.5 | 1616 | 56.8 | 0359 | 6.0 | 18.8 | N | 8 | 1139 | 48.8 | 0.0 | 51 | 25 | 10.9 |
| 8/17/26 | 58.1 | 2213 | 56.8 | 2339 | 5.2 | 13.0 | NNE | 12 | 2343 | 46.9 | 0.0 | 50 | 43 | 11.1 |
| 8/16/26 | 69.4 | 1537 | 53.8 | 0638 | 7.4 | 21.6 | NNE | 12 | 1639 | 46.1 | 0.0 | 50 | 26 | 10.8 |
| 8/15/26 | 65.5 | 1549 | 49.7 | 0501 | 8.6 | 20.7 | NNE | 13 | 1154 | 44.9 | 0.0 | 68 | 31 | 10.8 |
| 8/14/26 | 63.5 | 1547 | 49.1 | 0634 | 9.6 | 26.3 | NNE | 15 | 1548 | 47.3 | 0.0 | 80 | 35 | 10.9 |
| 8/13/26 | 63.9 | 1343 | 52.2 | 2054 | 11.9 | 31.7 | N | 10 | 0439 | 49.6 | 0.0 | 79 | 57 | 10.9 |
| 8/12/26 | 68.4 | 1438 | 57.1 | 2357 | 10.4 | 26.1 | NNE | 18 | 1505 | 48.6 | 0.0 | 65 | 17 | 10.9 |
| 8/11/26 | 74.3 | 1514 | 61.0 | 2034 | 11.1 | 24.0 | NNE | 32 | 1245 | 47.8 | 0.0 | 40 | 18 | 10.9 |
| 8/10/26 | 76.0 | 1515 | 63.6 | 2042 | 10.9 | 24.4 | NNE | 13 | 0311 | 49.6 | 0.0 | 43 | 16 | 10.9 |
| 8/9/26 | 79.6 | 1408 | 66.0 | 2052 | 6.8 | 20.9 | NNE | 15 | 1658 | 50.5 | 0.0 | 37 | 15 | 10.9 |
| 8/8/26 | 83.1 | 1545 | 67.9 | 0714 | 4.3 | 17.9 | N | 0 | 1429 | 53.7 | 0.0 | 43 | 23 | 11.0 |
| 8/7/26 | 85.0 | 1529 | 65.7 | 0105 | 4.2 | 14.8 | NNE | 26 | 1806 | 52.9 | 0.0 | 41 | 19 | 10.9 |
| 8/6/26 | 78.1 | 1510 | 64.9 | 0114 | 8.8 | 22.3 | N | 9 | 1306 | 49.4 | 0.0 | 36 | 10 | 10.8 |
| 8/5/26 | 78.3 | 1523 | 63.4 | 0447 | 7.5 | 18.9 | N | 11 | 1507 | 48.2 | 0.0 | 42 | 11 | 10.9 |
| 8/4/26 | 80.1 | 1446 | 61.9 | 0547 | 5.1 | 16.2 | N | 8 | 1639 | 48.8 | 0.0 | 39 | 11 | 10.9 |
| 8/3/26 | 78.3 | 1511 | 58.5 | 0522 | 3.9 | 18.7 | NNW | 331 | 1633 | 48.1 | 0.0 | 42 | 13 | 10.8 |
| 8/2/26 | 75.5 | 1415 | 60.7 | 2226 | 6.8 | 24.3 | NNE | 18 | 1642 | 46.5 | 0.0 | 41 | 12 | 10.8 |
| 8/1/26 | 64.8 | 2356 | 64.5 | 2359 | 3.9 | 6.0 | NNE | 19 | 2352 | 43.3 | 0.0 | 16 | 16 | 10.9 |
| Max | 85.0 | - | 67.9 | - | 12.4 | 31.7 | - | - | 53.7 | 0.0 | 95 | 57 | 11.1 |
| Avg | - | - | - | - | 8.3 | 22.3 | - | - | 48.3 | - | - | - | - |
| Min | 55.9 | - | 48.1 | - | 3.9 | 6.0 | - | - | 43.3 | 0.0 | 16 | 10 | 10.8 |